Location: Auttagershofen
(48.1940°N, 10.0237°E)
Time: 18:41:04
(UTC+00:00)

CENTAUR R/B - Pass Details

Date: 18 January 2026
Orbit: 629 x 1552 km, 63.4° (Epoch: 18 February)

Event Time Altitude Azimuth Distance (km) Brightness Sun altitude
Rises 05:20:04 0° 202° (SSW) 3,176 5.1 -16.8°
Reaches altitude 10° 05:22:16 10° 198° (SSW) 2,349 4.5 -16.5°
Maximum altitude 05:27:32 56° 121° (ESE) 1,086 3.1 -15.6°
Drops below altitude 10° 05:34:12 10° 46° (NE) 2,955 5.4 -14.5°
Sets 05:37:15 0° 43° (NE) 4,070 6.1 -14.0°
